Change the Weather History Date:

Wednesday, September 5, 2012

  Actual Average Record
Temperature  
Mean Temperature 69 °F 68 °F  
Max Temperature 74 °F 77 °F 96 °F (2004)
Min Temperature 63 °F 58 °F 48 °F (1962)
Degree Days  
Heating Degree Days 0 0  
Month to date heating degree days 1 0  
Since 1 July heating degree days 34 15  
Cooling Degree Days 4 3  
Month to date cooling degree days 8 15  
Year to date cooling degree days 183 227  
Growing Degree Days 18 (Base 50)    
Moisture  
Dew Point 60 °F    
Average Humidity 75    
Maximum Humidity 93    
Minimum Humidity 57    
Precipitation  
Precipitation 0.01 in 0.00 in 0.03 in (1978)
Month to date precipitation 0.01 0.00  
Year to date precipitation 5.72 11.04  
Since 1 July precipitation 0.04 0.06  
Sea Level Pressure  
Sea Level Pressure 29.97 in    
Wind  
Wind Speed 3 mph (West)    
Max Wind Speed 10 mph    
Max Gust Speed 26 mph    
Visibility 10 miles    
Events Rain    
T = Trace of Precipitation, MM = Missing Value Source: NWS Daily Summary

Daily Weather History Graph

Daily Weather History Graph

Search for Another Location

Airport or City:

Trip Planner

Search our weather history database for the weather conditions in past years. The results will help you decide how hot, cold, wet, or windy it might be!

Date:

Astronomy

Sep. 05, 2012 Rise Set
Actual Time 6:32 AM PDT 7:16 PM PDT
Civil Twilight 6:07 AM PDT 7:41 PM PDT
Nautical Twilight 5:37 AM PDT 8:11 PM PDT
Astronomical Twilight 5:06 AM PDT 8:41 PM PDT
Moon 10:06 PM PDT (9/5) 11:24 AM PDT (9/5)
Length of Visible Light 13h 33m
Length of Day
12h 43m
Waning Gibbous, 75% of the Moon is Illuminated
Sep 5
Waning Gibbous
Sep 8
Last Quarter
Sep 15
New
Sep 22
First Quarter
Sep 29
Full

Hourly Weather History & Observations

Time (PDT) Temp. Dew Point Humidity Pressure Visibility Wind Dir Wind Speed Gust Speed Precip Events Conditions
12:55 AM 64.0 °F 60.1 °F 87% 29.97 in 10.0 mi Calm Calm - N/A   Clear
1:55 AM 64.0 °F 60.1 °F 87% 29.97 in 10.0 mi Calm Calm - N/A   Clear
2:55 AM 64.0 °F 59.0 °F 84% 29.96 in 10.0 mi Calm Calm - N/A   Clear
3:55 AM 63.0 °F 60.1 °F 90% 29.97 in 10.0 mi Calm Calm - N/A   Clear
4:55 AM 64.0 °F 60.1 °F 87% 29.98 in 10.0 mi West 4.6 mph - N/A   Clear
5:55 AM 64.0 °F 60.1 °F 87% 29.98 in 10.0 mi Calm Calm - N/A   Clear
6:55 AM 64.0 °F 60.1 °F 87% 29.99 in 7.0 mi Calm Calm - N/A   Clear
8:55 AM 66.9 °F 60.1 °F 79% 29.99 in 10.0 mi Calm Calm - N/A   Partly Cloudy
9:55 AM 69.1 °F 59.0 °F 70% 30.00 in 10.0 mi SW 5.8 mph - N/A   Clear
10:55 AM 70.0 °F 62.1 °F 76% 30.00 in 9.0 mi SW 3.5 mph - 0.00 in   Mostly Cloudy
11:55 AM 70.0 °F 62.1 °F 76% 30.01 in 8.0 mi Variable 3.5 mph - N/A   Partly Cloudy
12:55 PM 70.0 °F 62.1 °F 76% 30.00 in 8.0 mi Calm Calm - N/A   Mostly Cloudy
1:55 PM 72.0 °F 62.1 °F 71% 30.00 in 10.0 mi WNW 6.9 mph - N/A   Scattered Clouds
2:55 PM 73.0 °F 57.0 °F 57% 29.99 in 10.0 mi West 3.5 mph - N/A   Overcast
3:55 PM 73.0 °F 57.0 °F 57% 29.97 in 10.0 mi Calm Calm - 0.00 in Rain Light Rain
4:55 PM 70.0 °F 63.0 °F 78% 29.96 in 9.0 mi WSW 3.5 mph - 0.01 in   Overcast
5:55 PM 66.0 °F 62.1 °F 87% 29.94 in 10.0 mi WNW 4.6 mph - N/A   Overcast
6:55 PM 66.0 °F 62.1 °F 87% 29.94 in 10.0 mi SW 5.8 mph - N/A   Overcast
7:55 PM 64.9 °F 61.0 °F 87% 29.93 in 10.0 mi West 4.6 mph - N/A   Partly Cloudy
8:55 PM 64.9 °F 60.1 °F 84% 29.96 in 10.0 mi West 9.2 mph - N/A   Partly Cloudy
9:55 PM 66.0 °F 60.1 °F 81% 29.96 in 10.0 mi Calm Calm - N/A   Scattered Clouds
11:55 PM 64.0 °F 59.0 °F 84% 29.96 in 10.0 mi Calm Calm - N/A   Clear